Temp
5 5 5 5 6 6 6 5 5 5 6 5 5 5 6 6 6 5 5 5 5 5 5 5 6 5 5 4 4 4 2 4 4 5 5 5 5 5 6 6 6 6 7 7 7
5 5 5 6 6 6 6 5 5 5 6 5 5 6 6 6 6 6 5 5 5 5 5 5 4 4 4 4 3 3 2 3 3 3 4 4 5 5 5 5 5 6 6 6 6
5 5 6 6 6 6 5 5 5 6 5 5 5 6 6 6 6 6 5 5 5 5 4 4 3 3 3 2 1 2 2 3 2 3 2 3 4 4 5 5 5 5 6 6 6
6 5 5 5 5 5 5 5 5 6 5 5 6 6 6 5 5 5 5 5 4 4 3 2 2 2 2 1 1 1 1 2 2 2 2 2 3 4 4 4 5 5 5 5 5
6 5 5 5 5 5 5 5 5 6 5 5 6 5 6 5 5 4 4 4 3 2 2 2 1 1 1 1 0 -0 -0 1 1 2 2 2 2 3 3 3 4 5 5 5 5
6 6 5 5 5 5 5 5 6 5 5 5 5 5 5 5 4 4 3 3 2 2 1 1 1 1 0 0 -0 -0 -0 0 0 1 1 1 1 2 2 2 3 4 4 4 4
5 5 5 5 5 5 5 5 5 5 5 5 5 5 4 5 4 4 3 2 1 1 1 0 0 0 0 -0 -0 -0 -0 -0 -0 0 -0 1 1 1 1 2 2 2 2 3 3
5 5 5 5 4 5 5 5 5 5 5 4 5 5 4 4 4 3 2 2 1 0 0 0 0 -0 -0 -0 -0 -1 -0 -1 -1 -1 -0 -0 -0 0 1 1 2 1 1 2 3
5 5 5 5 4 5 5 5 5 5 5 5 5 4 4 3 2 2 2 1 1 0 0 0 -0 -0 -0 -0 -1 -1 -1 -1 -1 -2 -2 -1 -0 1 1 1 1 2 2 2 2
4 4 5 4 4 4 5 5 5 5 4 4 4 5 4 3 2 1 1 0 0 -0 -1 -1 -1 -1 -1 -1 -2 -2 -2 -2 -2 -1 -1 -1 -0 1 0 0 1 1 1 2 2
4 4 5 4 4 4 4 4 5 5 4 4 4 4 3 2 2 1 0 -0 -0 -0 -1 -1 -2 -1 -2 -2 -2 -3 -4 -3 -3 -3 -2 -1 -1 -1 1 1 1 -0 -0 1 1
4 4 4 4 4 4 4 4 4 4 4 4 3 3 3 2 1 0 -0 -0 -1 -0 -1 -2 -1 -2 -3 -3 -3 -3 -3 -3 -3 -3 -2 -2 -2 -2 -1 0 1 1 0 1 1
4 4 4 4 4 4 3 3 4 4 3 3 3 3 3 2 1 1 -0 -1 -2 -2 -1 -2 -3 -3 -3 -3 -3 -4 -4 -5 -5 -3 -2 -1 -2 -2 -2 -2 -1 -0 0 0 0
4 4 4 3 3 4 4 3 3 3 2 2 2 2 2 1 1 0 -1 -1 -2 -2 -2 -2 -3 -3 -3 -3 -4 -4 -5 -5 -5 -4 -3 -2 -3 -2 -2 -2 -1 -1 -1 -1 0
4 4 4 3 3 3 4 3 4 3 -4 2 2 1 2 1 0 -0 -1 -2 -2 -2 -2 -3 -4 -4 -3 -3 -4 -5 -5 -5 -5 -6 -4 -4 -3 -3 -2 -1 -1 -1 -1 -1 -1
4 4 3 3 3 3 3 3 4 3 2 2 2 1 1 0 0 -1 -1 -2 -2 -3 -3 -3 -4 -4 -4 -4 -4 -4 -4 -5 -5 -5 -6 -4 -4 -2 -2 -2 -2 -2 -2 -2 -1
3 3 3 3 2 2 3 3 3 3 2 2 2 1 1 0 -0 -1 -1 -2 -2 -2 -3 -3 -4 -4 -4 -4 -4 -4 -4 -6 -8 -8 -9 -5 -4 -5 -5 -4 -3 -2 -2 -2 -1
2 3 3 3 2 2 2 2 3 3 3 2 2 1 1 0 -1 -2 -2 -3 -4 -3 -4 -4 -4 -4 -5 -4 -4 -5 -6 -7 -11 -8 -8 -4 -5 -5 -5 -5 -4 -4 -3 -2 -1
2 2 2 2 2 2 2 2 3 2 2 2 2 1 0 -0 -1 -2 -3 -3 -4 -4 -4 -5 -4 -4 -5 -5 -4 -5 -6 -6 -6 -8 -8 -5 -5 -5 -5 -5 -4 -3 -3 -2 -1
1 1 2 2 2 2 2 2 2 2 1 1 2 1 0 -0 -1 -2 -3 -4 -4 -5 -5 -5 -5 -4 -5 -5 -5 -5 -6 -6 -6 -10 -10 -6 -6 -6 -4 -3 -3 -4 -4 -3 -2
0 1 2 2 1 1 1 1 1 1 1 1 1 1 0 0 -1 -2 -3 -4 -4 -5 -4 -5 -5 -4 -5 -5 -5 -5 -6 -6 -7 -6 -9 -8 -7 -7 -7 -6 -5 -5 -5 -5 -4
-0 -0 1 1 1 1 1 1 1 1 1 0 0 0 0 -0 -1 -3 -3 -4 -4 -4 -4 -5 -5 -5 -5 -6 -6 -6 -7 -7 -7 -7 -7 -6 -6 -7 -6 -6 -6 -7 -6 -6 -5
-1 -1 0 0 1 1 1 1 1 0 0 0 0 -0 -0 -0 -1 -2 -3 -4 -4 -4 -4 -5 -5 -5 -5 -6 -6 -7 -7 -7 -7 -7 -7 -7 -6 -6 -6 -6 -7 -7 -6 -6 -7
-2 -1 -0 -0 1 1 0 0 0 0 0 -0 -0 -0 -0 -1 -1 -1 -3 -3 -4 -4 -4 -4 -4 -5 -5 -6 -6 -6 -7 -7 -7 -7 -6 -6 -6 -6 -6 -7 -7 -7 -6 -6 -6
-1 -1 -1 -1 1 0 0 0 0 -0 -0 -0 0 -0 -1 -1 -1 -1 -3 -3 -4 -4 -4 -4 -4 -4 -4 -5 -5 -5 -4 -5 -6 -7 -8 -6 -6 -6 -6 -7 -7 -6 -6 -6 -6
-1 -1 -1 -1 -0 -1 -0 0 0 0 0 0 -0 -0 -1 -1 -1 -1 -2 -3 -4 -4 -4 -4 -5 -4 -3 -5 -5 -4 -3 -5 -6 -6 -6 -7 -6 -6 -6 -6 -6 -6 -6 -6 -6
-1 -2 -1 -1 -1 -1 -0 0 0 -0 -0 -0 -1 -1 -1 -2 -2 -1 -2 -3 -3 -4 -4 -5 -5 -5 -4 -4 -4 -3 -3 -3 -4 -5 -5 -5 -5 -5 -6 -5 -5 -5 -5 -5 -5
Height
3151 3150 3149 3148 3146 3144 3141 3139 3137 3135 3133 3132 3129 3126 3122 3122 3124 3120 3118 3116 3113 3111 3110 3108 3107 3106 3106 3107 3107 3108 3110 3110 3114 3117 3117 3117 3120 3123 3125 3126 3129 3132 3134 3137 3140
3150 3150 3149 3148 3146 3143 3142 3139 3136 3134 3133 3131 3128 3125 3122 3120 3123 3120 3117 3113 3111 3107 3106 3104 3103 3102 3101 3101 3102 3105 3105 3109 3113 3114 3113 3115 3119 3121 3123 3124 3127 3129 3132 3134 3137
3150 3149 3148 3147 3145 3143 3141 3139 3135 3134 3132 3130 3127 3124 3120 3119 3121 3119 3114 3111 3108 3104 3102 3100 3099 3099 3098 3098 3099 3099 3102 3107 3109 3109 3110 3112 3116 3118 3121 3122 3124 3127 3129 3132 3134
3149 3149 3148 3146 3144 3142 3140 3138 3135 3134 3132 3129 3127 3124 3121 3121 3124 3118 3114 3109 3105 3102 3100 3098 3097 3097 3097 3097 3097 3098 3098 3101 3104 3107 3108 3110 3113 3115 3119 3121 3122 3124 3127 3130 3133
3149 3148 3147 3145 3143 3142 3140 3137 3135 3133 3132 3130 3127 3123 3121 3122 3122 3116 3111 3108 3104 3102 3100 3098 3097 3095 3095 3095 3096 3096 3097 3098 3100 3104 3106 3107 3110 3113 3115 3117 3120 3122 3125 3128 3130
3148 3148 3146 3144 3142 3141 3139 3136 3135 3132 3131 3129 3127 3123 3122 3123 3120 3114 3111 3107 3104 3102 3099 3098 3097 3095 3095 3094 3094 3095 3096 3097 3098 3101 3103 3104 3107 3110 3114 3115 3117 3120 3122 3124 3127
3148 3148 3146 3144 3142 3140 3137 3136 3135 3132 3131 3129 3127 3123 3122 3123 3118 3113 3109 3106 3103 3101 3098 3097 3096 3096 3095 3093 3093 3094 3094 3095 3094 3096 3099 3101 3104 3107 3112 3113 3115 3117 3119 3120 3123
3148 3147 3145 3144 3141 3140 3137 3135 3135 3132 3131 3129 3126 3124 3122 3120 3115 3111 3107 3104 3102 3099 3098 3097 3095 3095 3094 3094 3093 3094 3094 3095 3095 3094 3096 3097 3099 3104 3106 3108 3111 3114 3116 3118 3120
3148 3147 3145 3143 3141 3139 3137 3135 3134 3131 3129 3128 3127 3125 3122 3119 3115 3110 3106 3104 3100 3098 3098 3096 3095 3095 3094 3093 3094 3093 3093 3095 3096 3094 3094 3096 3098 3101 3103 3104 3105 3108 3113 3115 3117
3147 3147 3145 3143 3140 3138 3137 3134 3134 3132 3129 3127 3126 3125 3124 3121 3115 3110 3107 3103 3100 3099 3099 3097 3096 3095 3094 3093 3095 3094 3093 3094 3095 3095 3095 3095 3097 3099 3099 3097 3100 3103 3107 3110 3113
3146 3146 3145 3142 3139 3136 3136 3135 3135 3133 3130 3128 3127 3123 3121 3118 3115 3111 3107 3105 3100 3100 3100 3099 3098 3096 3095 3094 3094 3095 3094 3094 3094 3094 3095 3095 3096 3093 3091 3092 3094 3097 3100 3103 3105
3145 3144 3143 3142 3139 3137 3135 3132 3131 3132 3130 3127 3125 3123 3120 3117 3115 3111 3109 3107 3104 3102 3101 3103 3099 3098 3098 3096 3095 3095 3095 3093 3093 3093 3094 3094 3094 3092 3090 3088 3090 3092 3094 3096 3100
3142 3142 3141 3140 3138 3137 3135 3132 3130 3129 3129 3127 3124 3122 3120 3118 3114 3111 3110 3107 3105 3103 3103 3102 3103 3100 3099 3097 3096 3095 3095 3094 3093 3091 3092 3093 3095 3094 3092 3091 3089 3088 3090 3093 3095
3140 3141 3140 3138 3140 3135 3134 3132 3129 3127 3127 3127 3124 3121 3119 3116 3114 3110 3109 3109 3106 3105 3104 3105 3104 3102 3100 3097 3096 3095 3095 3094 3092 3091 3091 3091 3094 3092 3093 3092 3090 3090 3090 3090 3091
3139 3140 3139 3138 3137 3136 3135 3131 3129 3128 3130 3129 3125 3123 3120 3119 3116 3112 3110 3108 3107 3107 3108 3109 3106 3104 3101 3098 3095 3096 3093 3091 3090 3090 3091 3092 3093 3092 3091 3090 3089 3089 3089 3089 3089
3137 3137 3137 3136 3135 3134 3131 3130 3129 3130 3124 3126 3125 3122 3121 3119 3115 3112 3110 3110 3108 3107 3107 3108 3107 3105 3103 3099 3097 3094 3092 3091 3091 3090 3092 3092 3093 3092 3091 3090 3089 3089 3088 3087 3087
3133 3134 3134 3134 3134 3132 3130 3130 3129 3123 3125 3124 3122 3120 3120 3118 3117 3114 3112 3110 3109 3108 3107 3108 3108 3106 3104 3100 3097 3095 3092 3091 3096 3095 3096 3093 3093 3092 3092 3091 3089 3087 3085 3083 3082
3130 3130 3131 3131 3131 3130 3130 3130 3125 3123 3121 3122 3121 3119 3118 3117 3115 3113 3112 3112 3111 3109 3107 3107 3108 3107 3105 3102 3098 3095 3095 3096 3105 3099 3095 3092 3093 3092 3091 3091 3089 3087 3085 3081 3078
3127 3127 3128 3129 3130 3129 3129 3130 3124 3121 3120 3118 3118 3118 3118 3116 3118 3113 3111 3113 3112 3109 3110 3108 3108 3108 3105 3102 3101 3098 3098 3099 3098 3098 3098 3093 3093 3091 3090 3089 3088 3085 3081 3076 3072
3124 3124 3124 3125 3126 3127 3126 3126 3122 3120 3119 3119 3116 3115 3116 3114 3117 3115 3110 3112 3113 3111 3109 3110 3107 3107 3106 3104 3102 3100 3100 3100 3099 3102 3101 3092 3091 3090 3089 3088 3085 3081 3074 3069 3065
3121 3121 3121 3122 3124 3125 3123 3122 3121 3120 3118 3118 3116 3114 3113 3113 3113 3116 3115 3111 3112 3111 3109 3110 3109 3109 3107 3103 3101 3101 3100 3100 3100 3099 3100 3098 3091 3089 3087 3085 3081 3076 3071 3065 3061
3116 3118 3118 3118 3120 3121 3123 3121 3119 3118 3118 3117 3116 3113 3113 3111 3109 3114 3115 3112 3111 3111 3110 3110 3108 3106 3107 3103 3101 3101 3100 3100 3100 3100 3098 3097 3091 3087 3086 3084 3080 3076 3071 3066 3060
3109 3112 3113 3115 3115 3116 3119 3119 3118 3115 3117 3115 3115 3114 3112 3111 3111 3111 3113 3112 3111 3109 3109 3109 3108 3106 3104 3105 3101 3099 3098 3099 3099 3098 3096 3095 3089 3086 3084 3083 3080 3077 3074 3069 3062
3104 3104 3107 3110 3112 3113 3115 3115 3114 3114 3114 3114 3113 3113 3112 3110 3109 3110 3111 3111 3109 3109 3108 3107 3106 3107 3107 3103 3101 3097 3096 3096 3097 3096 3093 3090 3086 3085 3084 3082 3079 3077 3073 3068 3064
3094 3097 3101 3103 3106 3110 3110 3110 3110 3109 3112 3112 3110 3111 3111 3109 3107 3107 3110 3109 3108 3107 3107 3106 3104 3103 3102 3099 3096 3094 3093 3092 3093 3093 3091 3087 3085 3084 3082 3080 3080 3077 3074 3070 3065
3086 3090 3093 3099 3102 3104 3105 3105 3103 3106 3109 3110 3110 3109 3110 3109 3108 3105 3108 3107 3107 3106 3105 3105 3104 3101 3097 3096 3095 3092 3090 3089 3089 3087 3085 3084 3082 3083 3081 3081 3079 3077 3074 3070 3067
3077 3083 3088 3089 3094 3097 3100 3102 3104 3101 3105 3105 3106 3106 3109 3108 3106 3104 3105 3105 3105 3104 3103 3103 3102 3100 3095 3094 3091 3090 3088 3087 3087 3085 3084 3081 3081 3081 3081 3081 3080 3078 3076 3073 3069
Wind_Speed
3 5 6 8 10 11 13 14 15 16 16 13 13 13 14 16 18 15 10 13 13 13 15 14 16 15 17 18 21 24 25 25 24 20 17 15 15 16 14 16 16 20 19 18 13
4 5 7 9 11 12 13 13 14 15 13 14 14 14 15 15 18 11 14 13 13 13 13 14 15 15 15 18 22 24 27 25 18 18 23 21 17 15 13 15 18 22 20 18 15
5 6 7 9 11 12 12 13 13 14 14 13 12 14 15 16 16 15 14 14 13 13 13 12 12 13 15 17 22 26 29 25 22 23 22 25 24 16 16 17 18 18 17 18 17
5 6 8 10 11 12 12 13 13 13 13 12 13 14 15 15 13 16 15 13 13 13 11 10 9 8 10 15 22 23 27 27 28 26 24 26 24 17 15 18 21 20 18 18 19
6 7 8 10 12 12 12 13 13 13 13 14 13 12 16 17 15 15 15 15 14 14 13 11 8 6 6 9 16 23 23 26 27 26 25 25 26 20 14 17 21 23 21 20 19
6 7 9 10 11 12 13 13 12 12 13 14 12 11 16 17 16 17 17 17 16 14 12 10 8 6 5 6 8 12 18 24 25 25 24 27 27 24 19 15 17 20 21 17 16
7 7 9 10 11 12 12 11 11 12 13 13 10 13 16 17 18 18 17 15 12 11 10 8 7 6 5 4 4 5 7 10 15 22 24 27 29 28 19 17 17 16 16 17 18
7 8 8 10 11 12 11 11 11 12 13 9 12 10 15 20 19 19 18 16 12 11 11 8 6 5 4 3 4 5 1 3 7 3 15 24 23 16 26 27 27 22 20 20 21
7 8 9 9 10 11 10 11 11 9 10 6 15 9 19 20 18 19 18 15 13 11 8 6 5 4 4 3 2 2 1 1 2 1 2 7 13 20 28 29 30 32 30 27 25
9 9 9 9 9 11 11 10 12 10 7 6 14 10 18 16 19 19 17 15 13 10 6 5 4 5 5 3 3 6 5 4 7 7 8 8 12 8 11 18 20 22 27 30 30
8 9 9 9 8 8 10 10 12 9 7 8 11 15 18 17 18 16 16 14 12 9 6 7 5 8 8 8 5 6 8 9 8 5 11 8 11 9 15 18 18 14 16 24 25
8 8 8 9 9 9 8 9 9 8 5 4 12 15 18 15 17 15 14 12 11 8 6 6 11 10 8 7 6 6 8 9 2 5 9 7 13 8 8 4 15 20 20 24 24
8 8 7 8 9 9 10 10 10 10 5 3 12 15 18 16 18 16 14 11 11 8 8 11 10 12 8 7 7 7 8 10 13 13 5 13 13 16 18 15 8 9 17 21 23
7 9 8 7 8 8 8 10 10 8 6 4 11 14 18 16 15 16 14 11 9 7 5 7 10 11 12 11 12 5 9 11 10 9 1 3 4 8 10 11 11 12 7 8 22
9 9 9 8 8 10 10 11 11 6 3 6 10 12 15 14 14 13 12 7 9 9 7 4 4 8 12 14 11 10 11 10 3 3 3 4 1 2 3 3 4 6 5 2 3
10 10 9 8 8 9 9 10 9 2 3 4 9 10 13 13 13 11 12 11 5 7 8 4 6 6 14 11 7 17 9 2 5 3 2 5 2 2 4 7 6 6 9 11 13
10 10 11 9 8 8 8 8 4 3 4 3 7 9 10 12 10 9 9 9 11 2 7 2 7 4 14 12 7 13 9 4 4 4 3 1 3 2 2 6 12 15 16 19 22
12 11 11 10 9 9 8 8 5 4 3 4 7 7 8 12 8 8 9 8 12 12 5 7 2 8 9 12 9 12 13 4 4 2 4 4 2 3 4 6 13 17 24 27 28
15 12 11 11 11 10 8 8 5 4 4 4 5 3 7 10 7 5 7 8 9 13 8 8 2 7 6 8 12 5 7 4 1 2 2 1 2 6 7 11 17 23 27 22 18
18 15 14 13 12 12 10 10 9 7 6 4 3 1 5 7 6 6 6 5 6 10 10 10 4 6 3 3 8 13 9 3 3 3 3 3 3 5 6 14 24 30 28 27 26
21 17 16 14 14 14 13 13 11 10 7 4 4 3 4 5 5 5 5 3 6 8 8 12 4 6 4 2 6 6 10 5 3 1 2 3 2 8 16 23 31 29 28 29 29
25 20 17 14 15 14 17 15 11 9 8 7 7 5 4 5 4 3 4 2 5 8 7 8 6 6 7 2 2 3 7 9 4 3 4 3 6 10 15 24 23 21 23 24 26
29 25 21 17 17 17 18 16 13 11 10 7 6 6 5 5 2 3 4 4 4 6 5 8 5 6 4 3 5 5 11 7 8 6 6 2 5 11 20 18 13 13 17 22 23
33 27 29 24 23 21 19 17 16 12 12 12 10 8 7 6 5 4 5 5 4 5 4 6 7 8 8 11 14 15 11 9 6 6 6 12 17 16 13 9 5 12 17 20 21
31 32 29 12 22 25 24 20 13 15 14 11 10 10 9 6 5 7 7 7 7 6 5 7 7 13 14 10 9 11 10 5 9 12 9 7 12 8 5 4 6 11 16 17 20
38 37 34 31 28 22 16 22 18 14 13 12 12 10 10 9 9 7 8 8 8 6 7 10 7 16 18 7 11 15 9 7 9 11 13 11 8 1 2 8 9 13 16 18 19
40 42 36 37 31 27 23 18 16 13 16 16 14 14 10 8 10 9 10 11 11 11 11 12 6 13 5 11 14 7 2 4 7 7 8 7 2 10 12 5 8 11 13 14 16
Wind_Direction
354 355 0 349 353 349 349 351 348 347 347 350 360 1 8 1 330 325 332 320 312 308 300 291 281 269 256 240 233 226 224 231 235 239 227 228 205 204 211 214 222 230 243 256 241
11 3 2 354 353 350 349 349 352 350 353 1 6 7 8 1 332 329 330 329 327 311 300 287 275 263 244 235 231 227 227 231 230 230 231 218 199 192 200 207 224 234 242 252 248
10 9 1 354 353 353 348 349 2 358 357 4 7 358 6 6 341 333 339 336 326 313 303 292 281 272 249 228 223 227 232 231 226 226 227 225 224 216 212 212 219 231 245 253 242
5 5 357 353 354 354 351 357 5 1 357 3 1 6 14 13 350 340 343 340 333 323 317 322 310 290 265 234 225 224 232 234 228 228 231 227 222 204 222 219 224 229 234 244 245
356 356 355 355 355 353 354 5 3 3 1 1 3 19 16 7 348 346 340 347 342 341 341 336 327 325 284 260 242 236 233 236 236 228 236 237 232 223 200 214 222 231 236 244 245
351 346 353 353 356 354 2 9 360 6 2 359 8 22 19 359 349 346 348 345 344 344 343 339 332 335 316 297 262 258 252 244 246 243 237 242 234 229 216 208 211 221 223 221 225
340 337 347 353 356 357 9 3 0 9 7 1 8 20 18 359 348 356 351 351 352 345 347 339 340 329 320 317 341 308 275 266 244 243 247 247 244 238 233 228 213 220 220 218 220
325 327 345 356 354 356 4 3 1 7 3 10 11 12 7 356 359 0 358 356 348 357 352 343 338 319 306 309 321 318 344 137 47 248 239 236 246 237 241 241 234 227 228 231 238
319 326 341 353 352 354 360 360 354 8 9 24 11 5 6 359 359 2 2 358 353 351 347 354 353 344 339 307 297 7 24 35 66 176 281 253 256 258 247 249 247 241 238 235 241
323 323 335 344 356 355 353 355 351 356 11 14 16 13 0 360 3 4 7 12 13 11 8 20 5 9 9 25 6 341 355 331 323 279 257 267 278 285 256 247 244 243 243 243 246
319 318 327 331 346 357 349 346 350 347 349 30 17 17 6 7 7 8 7 16 24 22 33 62 50 54 42 44 32 354 353 345 333 315 327 307 324 300 271 247 241 229 224 226 232
311 309 316 324 341 347 337 344 347 331 301 10 19 16 12 9 12 6 6 21 29 38 54 62 42 36 22 11 6 357 352 357 14 345 337 10 68 56 40 255 238 235 230 225 220
298 294 305 315 330 338 338 339 340 338 248 349 8 13 12 9 9 10 16 30 35 46 50 47 33 39 33 12 10 358 359 351 335 333 29 115 73 74 71 72 79 197 218 228 225
287 291 300 312 321 328 331 328 334 337 234 335 359 5 10 10 6 10 16 26 33 32 29 35 57 39 19 12 359 22 338 325 326 350 49 248 140 68 86 86 88 88 105 209 231
282 285 295 308 313 321 332 330 332 330 0 330 356 0 6 15 11 12 17 30 38 39 43 57 38 32 23 11 14 354 333 338 356 43 31 47 112 59 88 159 93 62 46 28 237
268 278 286 292 299 310 321 324 326 304 235 314 349 355 5 2 10 26 26 20 29 39 43 70 27 32 12 6 5 351 339 71 64 108 70 38 35 194 29 6 10 354 333 314 276
258 267 274 281 284 291 306 314 287 227 278 307 336 351 355 4 9 28 33 24 40 69 28 347 17 17 8 19 20 357 39 31 22 18 199 231 352 260 294 332 333 330 321 313 305
251 253 262 267 271 282 296 293 243 229 276 300 329 338 352 0 357 16 36 29 28 30 14 5 314 7 8 27 16 27 45 70 173 343 294 270 277 215 219 328 327 319 319 309 306
249 250 257 265 272 276 285 279 268 252 254 289 316 322 345 348 350 360 22 26 24 24 22 6 320 2 5 28 26 35 30 51 339 271 289 275 270 262 253 308 310 320 322 320 325
250 246 247 255 261 267 267 266 259 255 275 280 283 253 320 340 346 352 9 24 22 19 18 358 317 339 6 26 44 51 42 33 17 32 328 301 292 267 280 308 330 332 338 343 340
245 242 245 252 257 261 258 259 263 258 260 259 264 280 302 324 332 328 352 5 9 9 10 348 332 337 301 333 51 59 55 27 329 299 159 305 283 285 324 338 336 341 347 347 344
239 241 242 244 248 255 262 259 259 257 255 257 266 265 284 312 312 305 317 346 1 352 8 357 314 319 298 239 29 61 23 25 18 322 276 257 267 294 331 335 339 351 2 356 348
238 241 244 249 251 254 262 260 259 255 255 258 244 259 280 296 299 267 287 302 329 352 358 356 337 322 287 264 298 289 309 322 333 324 253 258 276 313 331 334 344 17 29 27 18
233 239 242 247 255 256 257 257 253 260 252 247 254 254 269 279 283 280 269 284 305 336 321 337 315 285 264 289 292 295 298 276 282 275 276 255 279 304 319 340 21 42 25 18 13
222 232 238 234 246 251 249 251 258 251 250 247 253 252 252 266 273 265 261 271 287 301 287 317 311 300 312 285 284 302 301 257 247 265 255 264 284 310 347 2 74 45 25 19 19
228 235 241 245 236 242 246 246 247 246 250 248 257 259 255 260 268 277 263 261 275 275 281 308 296 312 320 283 297 305 286 267 270 265 266 264 288 14 144 119 69 22 7 15 17
228 234 239 239 235 235 239 251 256 247 250 250 251 258 257 250 262 270 268 267 266 271 284 294 293 315 287 302 304 286 262 288 290 300 292 273 256 163 153 95 19 8 12 19 21